Starlink 11704

operational
NORAD ID: 64245 Int'l Des: 2025-119 Owner: SPXS Country: US Constellation: starlink
LEOCIRCULAR

Über Starlink 11704

Beschreibung wird geladen...

Live-Position

3D-Globus wird geladen...

Nächste Überflüge

Höhenverlauf

Altitude vs Time

uPlot chart will show altitude changes over time

Zweizeiliger Elementsatz

1 64245U 25119N 25353.80558955 .00206577 00000-0 15691-2 0 9993
2 64245 42.9968 330.3900 0001596 181.5292 178.5571 15.70910544 32687
Epoch: 19. Dez. 2025 • Age: 7 hours

Aktueller Status

Höhe 367.8 km
Geschwindigkeit 7.69 km/s
Subsatellitenpunkt -38.85°S, 140.18°E
Startdatum 3. Juni 2025
Alter 0.5 years
Typ internet

Technische Details

Klassifizierung Payload
Masse 960.00 kg
Trockenmasse 910.00 kg
Gesamtmasse 960.00 kg
Länge 0.30 m
Durchmesser 4.10 m
Spannweite 29.00 m
Form Box + pan
Hersteller SPXS
Bus-Typ Starlink V2MD
Phasenstatus In Orbit
Besitzer/Staat SPXS/US

Große Konstellationen

Loading constellations...